Regional Weather Roundup
Issued by NWS

Home | Current Version | Previous Version | Text Only | Print | Product List | Glossary Off
Versions: 1 2 3 4 5 6 7 8 9 10 11 12 13 14 15 16 17 18 19 20 21 22 23 24 25 26 27 28 29 30 31 32 33 34 35 36 37 38 39 40 41 42 43 44 45 46 47 48 49 50

000
ASUS43 KLOT 030912
RWRIL

ILLINOIS REGIONAL WEATHER ROUNDUP
NATIONAL WEATHER SERVICE CHICAGO/ROMEOVILLE IL
300 AM CST SAT DEC 03 2016

NOTE: "FAIR" INDICATES FEW OR NO CLOUDS BELOW 12,000 FEET WITH NO
SIGNIFICANT WEATHER AND/OR OBSTRUCTIONS TO VISIBILITY.

* THESE STATIONS ARE NOT UNDER NWS QUALITY CONTROL. THEY ALSO MAY NOT
  REPORT WEATHER SUCH AS PRECIPITATION OR FOG.

ILZ001-002-007-009-015-016-024-031000-
NORTHWEST ILLINOIS

CITY           SKY/WX    TMP DP  RH WIND       PRES   REMARKS
MOLINE         NOT AVBL
STERLING*      CLOUDY    32  24  72 NW7       30.36  WCI  26
SAVANNA*       CLOUDY    32  23  68 W7        30.37S WCI  26
$$

ILZ003-004-008-010-011-017-018-031000-
NORTH CENTRAL ILLINOIS

CITY           SKY/WX    TMP DP  RH WIND       PRES   REMARKS
ROCKFORD       CLOUDY    32  23  69 W7        30.36R WCI  26
FREEPORT*      CLOUDY    30  22  71 NW7       30.36R WCI  23
ROCHELLE*      CLOUDY    32  26  78 NW3       30.35S
DE KALB*       CLOUDY    31  24  74 W7        30.34S WCI  25
$$

ILZ005-006-012>014-019>023-031000-
NORTHEAST ILLINOIS

CITY           SKY/WX    TMP DP  RH WIND       PRES   REMARKS
CHICAGO-OHARE  CLOUDY    33  23  66 W7        30.33R WCI  27
CHICAGO-MIDWAY CLOUDY    34  21  59 W5        30.33S WCI  30
AURORA         NOT AVBL
LANSING*       CLOUDY    31  25  77 W6        30.34S WCI  25
JOLIET*        CLOUDY    35  25  68 W3        30.35S
WAUKEGAN       CLOUDY    32  23  69 W5        30.31  WCI  27
DUPAGE AIRPORT NOT AVBL
KANKAKEE*      CLOUDY    34  28  79 W5        30.35S WCI  30
WHEELING       NOT AVBL
MORRIS*        CLOUDY    33  29  83 CALM      30.34S
ROMEOVILLE*    CLOUDY    32  27  80 NW6       30.34S WCI  27
NORTHERLY ISL    N/A     34  22  61 W7          N/A  WCI  28
$$

LMZ740>746-031000-
SOUTHERN LAKE MICHIGAN

STATION/POSITION SKY/WX   TEMP    WIND        PRES    VSBY  WAVE
                          AIR SEA DIR/SP/G                  HT/PER
                          (F)     (DEG/KT/KT) (MB)    (MI)  (FT/S)
SOUTHERN BUOY              36 49  250/  8/ 12 1026.4R         1/ 4
HARRISON CRIB              36     270/  6/  8   N/A
BURNHAM HARBOR             34     250/  4/ 10   N/A
CALUMET HARBOR             33     220/  5/  6 1026.4R
BURNS HARBOR               36     230/ 10/ 15 1027.1R
MICHIGAN CITY              36     250/ 13/ 16   N/A
$$

ILZ025>027-034>036-040-047-049-050-058-095>099-031000-
WEST-CENTRAL ILLINOIS

CITY           SKY/WX    TMP DP  RH WIND       PRES   REMARKS
QUINCY         CLOUDY    33  30  88 NE6       30.35  WCI  28
GALESBURG*     CLOUDY    32  28  85 CALM      30.37S
MACOMB*        CLOUDY    35  33  92 NW3       30.39F
JACKSONVILLE*  CLOUDY    33  32  96 N5        30.37S WCI  28
PITTSFIELD*    CLEAR     31  29  94 CALM      30.37S
$$

ILZ028>032-037-038-041>044-048-051>054-059>061-031000-
CENTRAL ILLINOIS

CITY           SKY/WX    TMP DP  RH WIND       PRES   REMARKS
PONTIAC        CLOUDY    34  31  88 W7        30.36S WCI  28
BLOOMINGTON    CLOUDY    34  26  72 N8        30.35  WCI  27
PEORIA         CLOUDY    35  28  75 NW3       30.38S
LACON*         CLOUDY    33  26  78 W5        30.37R WCI  28
LINCOLN*       CLOUDY    37  32  82 CALM      30.38R
SPRINGFIELD    CLOUDY    37  33  85 N5        30.37S WCI  33
TAYLORVILLE    CLOUDY    35  34  95 CALM      30.36F
$$

ILZ033-039-045-046-055>057-062-063-031000-
EAST-CENTRAL ILLINOIS

CITY           SKY/WX    TMP DP  RH WIND       PRES   REMARKS
CHAMPAIGN      CLOUDY    36  27  69 NW3       30.36S
RANTOUL*       CLOUDY    36  31  79 NW3       30.36S
MATTOON        CLOUDY    37  31  78 N7        30.34  WCI  32
PARIS*         CLOUDY    36  31  82 NW6       30.37S WCI  31
$$

ILZ079-100>102-031000-
SOUTHWEST ILLINOIS

CITY           SKY/WX    TMP DP  RH WIND       PRES   REMARKS
ALTON          CLEAR     28  28  99 CALM      30.38R
BELLEVILLE     PTCLDY    29  29  99 CALM      30.36S
CAHOKIA*       PTCLDY    29  27  92 CALM      30.37
SPARTA*        CLOUDY    30  29  94 CALM      30.37F
$$

ILZ064>066-069>071-074>076-080>082-084>086-088>090-092>094-031000-
SOUTH-CENTRAL ILLINOIS

CITY           SKY/WX    TMP DP  RH WIND       PRES   REMARKS
CARBONDALE     NOT AVBL
CAIRO*         CLOUDY    35  32  87 CALM      30.37S
EFFINGHAM*     CLOUDY    37  35  96 CALM      30.38S
MARION         CLOUDY    32  30  93 CALM      30.37F
CENTRALIA*     PTCLDY    30  30  99 CALM      30.37R
SALEM*         PTCLDY    32  30  93 CALM      30.38S FOG
METROPOLIS*    CLOUDY    33  31  94 CALM      30.38S
$$

ILZ067-068-072-073-078-083-087-091-031000-
SOUTHEAST ILLINOIS

CITY           SKY/WX    TMP DP  RH WIND       PRES   REMARKS
LAWRENCEVILLE  CLOUDY    39  34  82 N5        30.37S
FLORA*         CLOUDY    36  33  88 CALM      30.37F
FAIRFIELD*     CLOUDY    31  30  97 CALM      30.36S
HARRISBURG*    MOCLDY    31  30  96 CALM      30.38F
CARMI*         CLOUDY    30  30  99 CALM      30.37F FOG
$$

ABBREVIATIONS USED IN REMARKS
   TC - TEMPERATURE IN CELSIUS
  WCI - WIND CHILL INDEX
   HX - HEAT INDEX
  VSB - VISIBILITY
$$





USA.gov is the U.S. government's official web portal to all federal, state and local government web resources and services.